Theta_e
295 295 295 295 297 298 297 297 295 297 300 300 300 300 300 300 299 300 301 301 301 300 299 301 309 314 311 312 313 303 307 304 306 315 320 318 320 317 318 318 316 317 317 317 317 321 322 313 307 314 314 311 308 308
293 293 294 294 296 297 297 297 297 297 297 301 301 301 300 300 300 301 299 300 302 298 296 296 299 300 308 312 309 306 310 305 308 311 314 314 313 314 316 318 311 319 317 319 317 317 309 310 310 308 306 307 307 307
293 292 293 294 296 297 297 297 297 297 297 297 301 301 302 301 302 301 298 297 297 297 297 296 296 296 299 300 305 307 301 304 306 307 309 307 309 312 315 315 314 311 308 314 311 309 304 306 303 303 302 304 304 305
294 292 292 293 294 295 295 296 296 297 297 297 297 298 300 302 301 300 298 297 298 299 300 297 295 295 296 300 302 304 305 302 303 305 306 307 310 305 310 309 310 308 306 307 309 304 302 303 302 303 303 303 303 304
294 292 291 292 294 294 293 294 295 296 296 297 297 298 298 297 297 296 295 294 295 301 301 299 297 295 297 299 299 301 303 303 303 303 303 305 303 303 301 303 306 304 308 308 311 305 304 303 302 301 302 301 302 301
294 294 291 291 292 294 294 293 293 293 294 296 296 296 297 298 297 296 296 294 295 296 302 300 297 297 297 299 299 300 301 300 301 302 301 299 298 301 306 307 301 300 300 300 301 300 300 299 298 298 298 299 300 300
294 295 292 291 291 292 294 294 294 294 293 293 293 294 294 293 293 295 296 295 294 295 301 300 299 297 295 297 296 297 297 297 300 300 300 300 299 301 300 298 299 299 298 298 298 298 297 297 297 297 297 298 297 297
295 294 295 292 291 291 292 293 294 294 294 293 293 292 292 292 293 294 293 292 294 298 299 299 298 299 296 299 299 295 299 298 297 299 298 299 299 299 300 299 297 296 296 296 296 296 296 296 296 297 297 297 297 297
295 295 295 294 293 293 293 294 294 294 294 293 294 292 293 294 296 295 292 291 293 298 298 298 299 300 296 297 297 298 298 298 296 298 298 298 298 298 295 295 296 297 297 298 297 298 298 298 299 299 298 297 297 297
293 294 295 295 294 294 294 294 294 294 294 293 295 297 298 294 292 293 296 298 299 297 298 296 297 298 298 297 297 299 298 297 298 298 297 298 297 296 297 297 297 298 298 297 300 302 301 301 300 300 298 297 297 297
293 293 294 295 294 294 294 293 292 293 293 295 297 297 295 293 296 297 298 297 297 297 297 296 297 298 296 299 298 297 298 298 298 299 299 299 299 298 299 298 296 296 295 296 296 295 295 295 296 300 298 298 298 298
294 294 295 295 295 294 294 293 292 294 294 294 295 293 295 296 297 297 297 297 297 297 297 298 298 298 299 298 299 297 298 298 299 297 299 300 300 299 299 297 294 293 294 295 294 294 294 294 296 299 298 298 298 298
295 294 295 295 295 294 294 293 291 292 292 293 294 294 295 295 297 296 297 297 298 297 298 298 299 299 299 299 297 297 298 299 298 299 299 300 300 300 298 296 293 292 293 293 293 293 293 294 293 293 294 292 292 293
292 293 294 294 294 293 293 291 291 292 295 295 295 295 296 297 297 297 297 297 295 298 299 299 297 299 298 298 297 298 297 298 299 299 299 301 300 299 296 293 293 291 291 292 293 292 292 292 291 290 289 290 291 292
289 289 291 290 289 290 291 291 291 294 295 295 295 296 296 293 293 293 293 295 295 298 299 300 300 299 299 298 298 297 298 298 299 300 302 301 299 296 294 292 291 291 290 291 292 292 292 291 291 290 289 289 290 291
289 289 291 288 288 289 289 291 292 293 294 295 295 296 295 297 296 296 297 297 297 297 298 299 298 299 298 298 298 297 296 297 299 301 301 299 296 295 295 293 292 291 290 290 291 291 291 291 290 290 289 289 289 290
289 291 290 289 290 289 290 292 293 293 294 295 295 291 295 297 298 296 298 298 297 299 299 298 297 295 298 298 298 298 298 300 301 299 299 298 297 295 294 292 291 290 290 290 290 290 290 289 289 290 291 289 288 288
291 291 290 288 290 291 292 292 294 294 294 295 296 295 293 293 295 294 296 297 299 298 298 298 298 298 299 299 300 301 299 298 297 298 297 296 296 294 292 292 291 291 290 290 290 290 291 291 291 291 289 289 288 287
291 291 290 290 290 291 293 292 292 294 295 294 294 293 294 294 294 293 296 297 297 296 297 298 298 298 299 299 300 300 299 298 296 295 294 294 294 293 292 292 291 291 291 290 291 291 291 291 291 291 290 290 290 289
290 290 290 290 290 291 292 292 291 292 294 295 294 296 295 296 294 295 296 297 296 297 297 298 298 299 299 299 299 299 298 297 295 295 294 293 293 292 292 292 292 291 291 291 291 291 292 291 291 290 290 290 289 288
290 290 289 290 290 290 291 292 293 293 293 293 295 295 297 295 296 297 297 297 296 296 297 298 299 298 295 296 297 298 297 296 296 297 297 296 294 294 293 292 292 292 292 292 293 292 291 292 292 291 289 289 288 289
290 289 289 288 289 289 289 290 292 292 292 293 294 296 296 297 297 296 297 297 296 297 297 297 297 297 297 296 296 297 297 297 296 294 295 295 295 295 295 294 293 294 293 293 293 293 292 292 292 291 290 289 289 289
288 288 289 289 289 288 289 290 291 291 292 294 295 295 296 297 296 295 297 296 297 296 296 296 295 295 297 296 296 296 296 297 297 297 295 296 296 295 294 294 294 293 294 293 292 292 292 291 291 290 290 289 288 287
288 289 290 290 289 290 290 291 292 293 294 294 295 295 296 296 294 295 296 297 296 293 294 294 295 296 296 296 297 297 296 296 296 295 295 295 296 295 294 294 292 292 291 291 292 292 292 290 290 289 288 289 288 288
287 288 289 288 289 290 290 291 292 293 293 294 294 295 295 293 295 295 296 296 293 291 291 291 293 295 297 297 296 295 292 295 296 296 293 294 294 293 292 292 291 291 290 291 291 290 289 290 289 289 289 288 288 288
287 285 286 286 287 288 290 290 291 291 292 292 294 293 293 295 295 294 294 294 293 291 291 291 292 294 294 294 294 294 294 293 294 295 292 293 293 292 292 291 291 289 289 289 289 289 289 289 289 289 288 288 287 287
284 283 283 282 282 285 287 288 289 291 292 292 292 292 293 293 292 293 291 289 290 288 288 288 288 290 293 293 292 291 291 292 293 292 290 291 291 291 290 290 291 290 288 288 287 287 288 288 288 289 289 288 287 287
282 280 280 280 280 283 285 286 288 289 288 286 288 291 292 292 292 288 287 284 284 284 285 287 287 288 289 291 289 288 287 288 288 287 286 286 286 285 286 287 287 287 287 286 286 286 286 286 287 287 287 288 287 286
280 279 277 275 277 281 283 285 285 284 282 283 284 286 288 286 284 284 283 280 280 282 285 287 287 286 285 285 286 286 287 287 289 289 290 289 287 286 286 286 286 286 285 285 285 284 285 286 286 286 286 286 286 286
277 277 278 276 276 280 282 283 283 281 280 280 281 282 283 285 283 279 279 279 280 283 284 283 285 286 287 286 285 285 284 285 288 289 289 288 287 285 284 284 283 284 284 285 284 285 284 285 285 285 285 285 286 286
276 277 277 278 278 280 281 277 277 278 278 280 281 282 283 283 282 278 277 277 277 277 279 283 284 285 286 286 286 286 285 283 284 285 285 286 284 283 282 282 282 283 283 284 284 283 284 285 285 285 285 285 285 285
275 277 277 277 278 279 277 278 278 279 280 280 280 281 282 282 282 282 275 274 276 278 279 278 282 285 284 285 283 283 283 281 281 282 282 282 282 282 282 282 282 283 283 284 284 284 284 284 284 284 284 283 282 283
273 271 272 274 276 278 277 276 278 278 278 279 280 280 281 282 282 279 273 273 274 276 276 276 276 277 278 279 279 278 279 279 280 280 280 280 280 280 281 281 281 282 282 284 284 284 284 283 283 283 282 282 282 281
Wind_Speed
21 23 27 31 31 28 21 20 26 24 16 34 32 33 36 38 37 37 13 21 14 2 3 6 2 14 10 10 8 6 5 1 1 5 7 5 3 7 7 6 9 12 9 6 8 9 12 9 13 14 3 3 0 4
20 21 24 29 32 30 27 23 21 24 25 11 30 31 34 37 38 34 5 12 20 3 3 5 12 13 1 12 8 10 3 7 5 3 3 4 4 6 10 7 7 8 11 9 11 7 3 13 5 5 1 3 4 3
17 20 21 25 30 32 31 30 25 21 22 23 22 25 27 37 41 27 14 21 12 3 1 5 5 12 11 9 15 6 0 4 5 2 3 2 3 7 7 11 8 10 4 5 5 8 6 13 1 4 2 3 3 3
14 17 19 22 27 32 32 32 33 26 18 19 24 27 28 30 31 24 17 13 10 4 3 3 9 5 10 7 6 8 15 7 9 4 2 3 3 5 5 1 9 2 12 9 3 5 6 10 6 5 4 4 6 6
13 16 18 20 22 26 30 33 34 35 25 20 21 28 32 36 37 36 27 15 4 2 4 3 3 19 11 15 19 21 17 14 5 4 2 3 3 4 2 2 6 8 7 7 4 8 2 9 8 7 5 2 5 2
11 13 15 17 19 21 24 27 30 31 31 28 24 33 35 34 20 5 3 10 13 8 3 4 2 10 15 17 14 11 9 6 3 4 3 3 2 2 5 5 6 7 6 3 6 8 8 7 3 0 2 2 4 3
11 11 13 15 17 19 20 22 25 26 25 25 28 25 14 14 8 7 5 5 6 5 3 4 3 4 5 6 4 4 4 3 3 3 2 3 4 3 2 3 10 8 7 8 7 5 3 5 3 5 6 7 5 8
11 10 11 13 15 17 19 20 22 22 23 17 13 17 16 16 18 10 13 9 11 8 4 4 3 3 8 3 3 3 2 2 4 2 3 3 4 2 3 7 8 6 4 3 3 3 3 2 4 7 6 7 9 10
9 9 9 10 12 14 17 19 21 21 19 16 10 10 6 12 5 4 8 7 12 5 4 3 3 4 1 2 2 2 2 3 1 2 3 2 3 3 5 8 8 5 2 4 2 4 5 7 8 8 8 8 9 9
10 9 7 9 11 13 17 20 21 18 14 10 9 5 3 5 14 7 2 1 4 3 3 3 0 4 2 2 2 2 2 2 2 3 2 2 3 4 5 3 2 3 3 2 2 4 3 4 5 7 8 7 7 6
11 12 5 9 11 13 17 20 24 10 8 6 4 3 4 10 5 3 4 4 3 3 3 3 4 6 1 2 3 2 3 1 2 3 2 2 2 5 8 8 6 4 2 1 1 3 4 7 8 7 6 5 4 6
7 12 8 10 10 14 16 18 24 18 7 5 4 2 4 4 4 5 3 2 4 3 2 5 5 3 3 1 3 2 3 1 3 4 2 2 3 10 9 8 6 4 2 1 1 1 2 3 1 6 5 3 2 4
17 11 12 11 10 13 15 18 20 14 3 1 1 3 3 4 6 3 2 2 3 2 3 5 4 2 3 3 4 2 2 2 6 3 2 1 8 7 7 7 6 4 3 2 2 2 2 3 4 3 1 1 2 2
19 20 16 13 13 14 15 17 20 12 5 3 4 5 4 3 4 3 3 3 2 4 7 5 3 3 2 3 2 3 3 4 3 3 3 5 10 8 7 6 6 4 3 1 3 4 3 3 4 3 2 2 7 7
13 16 17 17 15 14 14 15 18 8 5 3 3 4 4 2 2 2 1 1 2 5 3 4 4 2 2 3 1 3 5 4 4 4 4 7 11 9 9 8 7 4 2 2 2 3 3 3 4 5 5 5 8 10
7 6 14 19 18 16 14 11 9 4 3 3 3 4 3 2 3 2 5 5 2 1 1 1 3 3 2 3 5 4 6 5 3 4 5 8 10 8 8 7 6 4 3 2 1 2 4 4 4 5 7 8 7 9
9 6 14 18 18 12 13 5 5 4 2 2 2 2 2 2 3 2 1 3 1 2 1 1 2 2 3 2 3 3 2 2 5 5 5 7 9 8 7 7 6 5 4 2 2 2 3 4 5 5 5 5 6 7
5 9 14 16 17 7 5 8 3 2 4 2 1 2 1 1 1 1 1 1 2 1 0 2 1 3 2 2 1 3 3 3 4 5 5 6 8 8 8 7 7 6 5 4 4 4 4 5 6 4 6 7 8 7
6 9 12 15 12 4 3 4 4 2 3 1 1 0 1 1 1 1 0 2 2 2 1 0 2 2 2 2 3 3 5 4 5 4 5 6 9 7 7 9 9 8 8 7 7 6 5 5 5 6 6 6 5 6
9 9 13 13 8 3 1 2 2 1 1 2 1 1 1 0 1 2 3 3 2 1 2 3 2 1 2 1 2 4 5 7 6 7 6 5 8 11 9 9 8 9 8 7 6 6 7 6 5 5 5 4 6 7
7 8 9 9 4 5 2 1 1 2 2 1 1 2 1 2 2 3 4 4 2 2 3 3 4 2 1 2 4 5 6 8 7 6 8 8 9 11 11 10 12 10 9 7 5 5 4 4 5 6 6 6 5 6
4 9 5 5 3 2 1 1 2 1 2 1 2 2 2 2 3 3 4 4 2 3 3 2 3 4 4 4 5 7 10 9 5 5 5 10 8 7 6 9 8 4 5 6 6 5 6 6 5 5 6 6 6 6
7 4 2 2 2 1 1 1 1 2 2 2 2 2 3 3 2 3 3 2 3 1 1 2 1 4 5 6 9 9 9 11 5 4 7 8 10 9 9 9 7 7 3 5 5 6 6 4 5 5 4 7 7 6
2 2 2 1 1 2 2 2 2 2 2 3 3 3 3 3 3 1 2 2 2 1 1 1 2 3 4 5 5 5 8 8 7 8 8 9 6 7 8 9 9 6 5 4 4 4 4 4 5 4 4 6 6 7
1 1 3 2 2 2 1 2 2 3 3 3 3 2 2 3 3 4 3 2 2 2 1 1 2 3 3 4 4 5 6 9 7 7 8 8 9 9 8 8 8 6 5 4 4 4 4 4 6 6 5 7 7 7
1 4 4 3 2 2 1 2 2 2 2 2 4 0 2 3 3 4 2 3 3 2 1 1 1 2 3 4 4 5 7 8 9 5 6 9 10 9 7 7 6 5 5 4 4 4 4 3 4 7 7 8 8 10
2 1 1 2 2 3 3 3 4 4 4 3 1 1 3 4 5 2 3 2 2 3 3 3 4 3 3 4 5 6 6 8 8 7 10 8 7 7 10 9 7 8 8 7 5 4 3 2 2 3 6 8 6 7
2 1 1 2 2 2 3 3 3 2 1 3 3 4 3 3 2 3 3 4 5 7 8 6 4 6 8 7 7 8 7 13 16 16 13 9 6 6 8 7 9 11 8 7 4 4 3 4 5 5 5 5 6 6
3 2 1 2 3 3 3 4 2 1 2 3 3 3 3 3 0 1 3 6 9 8 7 5 3 1 2 5 7 9 13 17 13 11 12 7 6 6 7 8 7 7 6 6 6 6 6 6 6 7 8 8 10 9
3 1 1 1 2 3 2 1 1 3 4 5 4 6 8 7 5 5 5 6 6 7 8 6 7 8 6 7 6 6 7 9 10 10 8 9 9 11 11 9 8 8 7 6 5 4 2 3 3 3 4 5 6 7
2 3 2 3 3 3 3 3 5 5 4 4 7 10 11 8 5 9 9 9 9 9 8 7 9 10 9 9 9 7 5 4 8 11 7 8 12 10 10 9 8 7 7 7 7 5 3 3 2 1 1 1 1 1
2 4 2 3 3 2 4 2 3 3 3 3 5 5 4 4 6 4 5 6 9 9 6 6 9 8 7 7 7 6 7 12 12 12 13 13 11 9 8 8 8 8 7 7 6 5 4 4 3 2 1 1 3 4
1 1 2 3 2 2 0 3 3 4 3 3 3 3 5 6 7 0 2 3 4 4 4 3 3 1 3 8 10 12 14 15 14 13 12 11 11 10 10 9 8 7 7 7 7 6 6 6 4 2 1 1 2 3
Wind_Direction
20 23 28 32 31 40 47 41 31 50 189 213 203 195 193 190 188 190 177 197 186 287 330 347 11 179 121 172 171 152 113 43 83 166 185 168 179 187 208 206 171 177 172 196 224 234 236 158 163 205 265 99 80 224
24 27 29 31 34 42 47 47 47 45 54 156 197 195 194 189 189 185 123 175 171 73 321 315 69 38 330 169 128 173 116 148 161 125 214 124 176 173 203 221 200 208 207 203 205 222 67 180 240 186 93 182 118 147
28 31 31 32 36 39 47 56 58 56 59 63 117 185 197 192 175 170 135 142 126 148 54 22 358 349 40 37 156 122 132 133 143 49 116 104 173 192 183 223 191 206 184 211 178 185 173 183 159 171 132 92 84 94
37 36 37 37 37 43 46 48 60 71 68 79 86 101 134 157 160 160 138 138 107 96 91 47 19 10 358 40 109 129 130 127 120 125 98 140 158 223 212 279 203 173 168 172 211 174 162 183 177 134 104 106 104 90
40 38 40 41 40 39 47 51 54 60 83 91 87 100 105 112 111 99 87 70 114 74 110 113 58 20 49 83 95 119 129 128 130 113 127 142 124 143 92 160 196 187 167 179 219 169 159 138 152 146 154 128 67 64
52 44 41 40 39 41 40 44 47 50 65 81 112 104 105 109 96 58 91 44 77 101 109 89 73 47 65 93 84 91 98 96 102 112 103 117 112 175 162 199 147 131 115 114 134 112 103 118 132 162 266 175 140 137
55 51 44 38 35 32 34 34 32 36 44 58 76 85 148 173 135 77 87 135 119 78 91 105 93 9 37 89 68 90 76 78 73 99 88 133 139 209 166 155 146 144 121 103 105 125 171 206 217 221 226 218 234 260
61 53 47 42 36 29 23 20 21 21 19 31 44 60 85 82 79 65 35 52 126 91 69 92 100 100 359 65 92 3 86 66 35 93 145 125 141 162 185 135 130 122 124 146 177 207 259 168 221 231 234 244 251 254
48 49 51 43 33 23 18 13 6 4 5 8 21 35 72 35 39 357 359 79 79 69 99 93 113 112 2 67 66 58 28 69 305 100 94 201 156 184 133 143 143 122 135 143 202 231 223 233 250 245 233 234 242 247
31 25 47 49 37 24 11 4 355 350 355 8 23 28 52 3 321 340 87 52 36 47 56 78 105 108 156 148 106 139 49 106 128 88 164 197 151 140 139 111 132 108 106 117 192 186 185 238 239 242 230 234 235 235
19 27 47 41 40 29 17 18 15 11 28 31 33 50 332 341 359 34 47 35 21 72 54 86 97 122 91 120 109 350 112 121 143 110 223 156 188 153 140 119 112 106 89 53 332 311 285 267 256 255 212 214 229 220
24 34 60 43 41 30 23 21 19 34 33 43 71 36 360 15 41 61 32 20 30 71 99 115 101 79 102 124 100 87 90 162 111 147 192 200 137 145 145 126 108 98 92 105 83 307 289 294 233 217 237 256 244 199
60 56 55 66 41 21 14 10 10 9 34 25 45 62 10 5 56 54 101 83 105 107 133 151 107 71 127 76 78 93 101 94 134 175 211 139 142 147 135 122 108 93 94 99 79 44 34 64 58 50 157 177 229 185
52 57 62 46 26 8 5 4 2 4 31 43 29 39 26 40 54 38 57 74 62 140 131 111 83 63 85 79 124 110 102 157 183 193 205 152 162 153 125 124 148 147 146 140 65 42 42 64 72 64 90 157 159 134
34 44 35 22 13 4 355 352 357 26 30 50 30 53 56 62 40 36 357 119 86 120 135 120 100 104 108 116 180 130 161 192 215 198 138 152 150 150 152 154 142 135 116 66 26 45 58 80 97 88 85 114 128 128
12 13 10 3 359 358 353 344 6 32 50 48 58 110 123 156 96 81 103 113 132 132 261 114 119 130 137 151 184 195 176 198 163 143 133 139 145 146 143 142 142 140 141 110 39 70 90 92 100 90 87 97 121 137
36 25 359 359 355 350 4 3 9 43 53 54 73 54 23 62 81 101 53 81 111 203 107 158 148 99 129 202 204 185 210 103 133 130 132 143 146 145 134 136 142 148 144 149 139 120 113 117 117 122 113 102 112 122
36 0 1 0 2 2 12 20 22 25 66 67 62 101 128 2 93 148 142 150 232 112 221 52 162 198 209 217 201 137 120 90 107 127 139 132 131 135 142 142 150 153 150 162 153 144 135 142 141 126 131 135 125 125
11 359 357 2 4 0 14 34 359 49 51 34 37 101 349 20 252 293 147 128 77 75 105 162 253 234 202 191 163 135 138 142 143 131 121 115 124 132 142 151 160 165 162 169 172 168 147 155 142 147 150 167 167 165
333 334 349 354 1 359 34 71 327 323 97 34 275 216 226 293 140 187 158 166 154 170 204 218 236 291 278 117 128 153 142 134 138 134 143 157 166 167 170 171 176 177 169 164 169 169 167 167 164 164 161 158 166 175
331 337 348 8 21 28 3 336 187 6 2 330 350 293 238 186 197 186 191 164 198 250 231 223 201 227 119 87 121 134 141 154 165 169 170 172 182 182 170 169 173 178 184 188 193 173 200 190 158 164 168 165 163 166
332 333 335 4 15 358 296 97 317 343 269 291 267 224 224 212 198 207 155 197 228 230 219 213 207 178 161 169 167 163 160 156 140 132 156 153 165 180 177 167 169 167 180 193 198 197 218 207 197 186 180 181 183 176
332 339 294 331 318 337 349 315 260 209 251 238 204 231 218 201 170 169 210 226 238 212 247 229 200 181 181 144 152 161 173 172 175 177 168 174 173 168 172 177 176 164 189 192 208 212 216 210 193 193 201 189 186 187
316 279 290 290 273 295 305 244 216 248 222 230 222 236 183 153 151 255 255 220 110 52 165 193 208 153 146 164 177 173 171 181 160 148 160 157 158 165 168 162 160 164 166 162 180 182 168 171 181 201 221 208 201 210
277 79 310 263 263 245 260 270 259 247 246 229 264 230 163 175 191 210 228 161 139 141 110 324 245 227 215 185 173 176 173 181 178 167 168 171 147 143 140 140 145 155 165 169 191 193 179 181 200 211 211 217 221 221
60 28 7 359 336 297 271 256 230 252 254 250 234 252 216 213 232 234 183 153 162 153 100 36 306 200 210 210 192 192 185 185 178 161 154 169 169 164 166 166 162 158 156 157 151 156 153 168 207 213 216 227 235 237
145 114 19 37 310 293 281 276 267 266 242 227 296 250 211 222 230 154 128 53 54 29 338 300 265 255 244 179 177 167 165 170 180 158 143 140 145 162 171 177 188 176 167 168 172 179 179 210 266 243 232 224 233 229
125 146 219 320 298 237 268 282 262 264 335 351 287 228 240 266 46 27 24 20 354 325 308 294 282 252 232 224 175 162 141 145 140 127 114 108 116 139 142 140 143 154 163 168 194 229 239 251 258 259 245 244 250 250
154 135 271 285 278 251 237 233 241 80 31 337 300 272 299 5 3 341 321 321 317 301 289 276 252 222 143 138 156 164 161 157 157 167 178 179 170 177 167 160 161 171 185 192 211 227 237 245 256 262 263 255 252 249
161 170 220 176 238 238 234 311 246 337 300 280 269 274 274 267 249 224 257 275 273 268 269 268 272 223 201 186 175 177 192 196 193 190 192 197 196 175 174 177 187 192 194 194 194 190 208 228 243 265 251 235 238 241
117 165 200 228 253 246 265 321 286 265 248 253 248 250 263 274 260 231 225 233 248 259 264 257 239 224 205 192 189 177 167 170 200 204 194 158 162 171 179 181 183 189 193 189 191 194 214 218 218 226 93 75 44 352
178 207 212 233 254 258 307 282 282 267 265 250 256 236 249 247 251 196 195 221 228 235 227 248 248 229 217 185 162 159 157 153 147 150 154 154 156 167 177 188 189 191 194 193 197 194 194 199 204 213 244 317 322 320
205 213 245 270 266 269 108 308 273 287 254 254 256 251 260 259 259 146 230 221 243 249 235 240 254 197 164 165 161 155 153 156 161 163 165 170 174 177 183 196 201 205 199 195 183 173 160 152 152 161 126 5 346 346